Weather History for Marathon, FL

Change the Weather History Date:

Friday, November 30, 2012

  Actual Average Record
Temperature  
Mean Temperature 73 °F 74 °F  
Max Temperature 76 °F 79 °F 98 °F (1997)
Min Temperature 70 °F 69 °F 60 °F (2002)
Degree Days  
Heating Degree Days 0 0  
Month to date heating degree days 1 1  
Since 1 July heating degree days 1 1  
Cooling Degree Days 8 9  
Month to date cooling degree days 227 325  
Year to date cooling degree days 4985 4764  
Growing Degree Days 30 (Base 50)    
Moisture  
Dew Point 65 °F    
Average Humidity 76    
Maximum Humidity 84    
Minimum Humidity 68    
Precipitation  
Precipitation 0.17 in 0.08 in 0.50 in (2008)
Month to date precipitation 0.28 2.82  
Year to date precipitation 44.08 44.15  
Snow  
Snow 0.00 in - - ()
Month to date snowfall 0.0  
Since 1 July snowfall 0.0  
Since 1 September snowfall 0.0  
Snow Depth 0.00 in    
Sea Level Pressure  
Sea Level Pressure 30.12 in    
Wind  
Wind Speed 14 mph (NE)    
Max Wind Speed 22 mph    
Max Gust Speed 28 mph    
Visibility 9 miles    
Events Rain    
T = Trace of Precipitation, MM = Missing Value Source: NWS Daily Summary

Daily Weather History Graph

Daily Weather History Graph

Search for Another Location

Airport:

Trip Planner

Search our weather history database for the weather conditions in past years. The results will help you decide how hot, cold, wet, or windy it might be!

Date:

Astronomy

Nov. 30, 2012 Rise Set
Actual Time 6:51 AM EST 5:34 PM EST
Civil Twilight 6:26 AM EST 5:59 PM EST
Nautical Twilight 5:58 AM EST 6:27 PM EST
Astronomical Twilight 5:30 AM EST 6:55 PM EST
Moon 7:26 PM EST 8:22 AM EST
Length of Visible Light 11h 32m
Length of Day
10h 43m
Waning Gibbous, 96% of the Moon is Illuminated
Nov 30
Waning Gibbous
Dec 6
Last Quarter
Dec 13
New
Dec 20
First Quarter
Dec 28
Full

Hourly Weather History & Observations

Time (EST) Temp. Heat Index Dew Point Humidity Pressure Visibility Wind Dir Wind Speed Gust Speed Precip Events Conditions
12:53 AM 73.0 °F - 63.0 °F 71% 30.13 in 10.0 mi ENE 12.7 mph 17.3 mph N/A   Mostly Cloudy
1:53 AM 71.1 °F - 64.9 °F 81% 30.12 in 5.0 mi ENE 13.8 mph - 0.03 in Rain Rain
2:08 AM 69.8 °F - 64.4 °F 83% 30.12 in 4.0 mi ENE 4.6 mph - 0.04 in Rain Light Rain
2:53 AM 71.1 °F - 64.9 °F 81% 30.11 in 10.0 mi NE 17.3 mph 25.3 mph 0.04 in   Mostly Cloudy
3:53 AM 70.0 °F - 64.9 °F 84% 30.11 in 10.0 mi NE 18.4 mph 27.6 mph 0.01 in   Overcast
4:02 AM 69.8 °F - 64.4 °F 83% 30.11 in 6.0 mi NE 17.3 mph 25.3 mph 0.01 in Rain Light Rain
4:21 AM 69.8 °F - 64.4 °F 83% 30.10 in 10.0 mi NE 13.8 mph 24.2 mph 0.01 in   Mostly Cloudy
4:53 AM 70.0 °F - 64.9 °F 84% 30.10 in 10.0 mi NE 12.7 mph - 0.01 in   Clear
5:53 AM 70.0 °F - 64.9 °F 84% 30.12 in 10.0 mi NE 12.7 mph - 0.00 in Rain Light Rain
6:25 AM 69.8 °F - 64.4 °F 83% 30.12 in 10.0 mi NNE 13.8 mph - 0.00 in   Mostly Cloudy
6:53 AM 70.0 °F - 64.9 °F 84% 30.13 in 10.0 mi NNE 11.5 mph - 0.00 in   Mostly Cloudy
7:53 AM 70.0 °F - 64.9 °F 84% 30.14 in 5.0 mi NE 15.0 mph - 0.01 in Rain Light Rain
8:53 AM 71.1 °F - 66.0 °F 84% 30.15 in 10.0 mi NE 10.4 mph - 0.02 in   Mostly Cloudy
9:53 AM 75.0 °F - 66.0 °F 73% 30.17 in 10.0 mi ENE 19.6 mph - N/A   Mostly Cloudy
10:53 AM 73.9 °F - 64.9 °F 73% 30.17 in 10.0 mi NE 16.1 mph - N/A   Mostly Cloudy
11:53 AM 75.9 °F - 64.9 °F 69% 30.14 in 10.0 mi NE 16.1 mph - N/A   Mostly Cloudy
12:53 PM 73.9 °F - 66.0 °F 76% 30.12 in 10.0 mi NE 16.1 mph - 0.02 in   Mostly Cloudy
1:27 PM 73.4 °F - 66.2 °F 78% 30.11 in 9.0 mi ENE 11.5 mph - 0.00 in Rain Light Rain
1:39 PM 73.4 °F - 64.4 °F 73% 30.10 in 10.0 mi ENE 16.1 mph 24.2 mph 0.00 in   Mostly Cloudy
1:53 PM 73.4 °F - 64.9 °F 75% 30.10 in 10.0 mi ENE 17.3 mph 24.2 mph 0.00 in   Scattered Clouds
2:53 PM 89.1 °F 90.3 °F 64.0 °F 43% 30.10 in 10.0 mi ENE 17.3 mph 24.2 mph 0.00 in   Mostly Cloudy
3:53 PM 90.0 °F 91.7 °F 64.9 °F 43% 30.10 in 10.0 mi ENE 13.8 mph - 0.03 in   Mostly Cloudy
4:53 PM 89.1 °F 90.0 °F 63.0 °F 42% 30.10 in 10.0 mi ENE 13.8 mph - N/A   Partly Cloudy
5:53 PM 73.0 °F - 63.0 °F 71% 30.10 in 10.0 mi ENE 12.7 mph - N/A   Clear
6:53 PM 84.9 °F 86.1 °F 64.0 °F 49% 30.10 in 10.0 mi NE 12.7 mph - N/A   Clear
7:53 PM 88.0 °F 89.3 °F 64.0 °F 45% 30.12 in 10.0 mi ENE 12.7 mph - N/A   Partly Cloudy
8:53 PM 89.1 °F 91.0 °F 64.9 °F 45% 30.12 in 10.0 mi NE 10.4 mph - N/A   Clear
10:53 PM - - - N/A% 30.13 in 10.0 mi NE 11.5 mph - N/A   Clear
11:53 PM - - - N/A% 30.12 in 10.0 mi NE 12.7 mph - N/A   Mostly Cloudy